Location: Columbia
(38.9520°N, 92.3340°W)
Time: 03:44:18
(UTC-05:00)

FENGYUN 3A - Visible Passes

Search period start: 27 April 2018 00:00
Search period end: 07 May 2018 00:00
Orbit: 818 x 834 km, 98.4° (Epoch: 26 April)

Date Brightness Start Highest point End Pass type
(mag) Time Alt. Az. Time Alt. Az. Time Alt. Az.
30 Apr 6.7 20:51:55 10° WSW 20:53:46 12° W 20:55:37 10° WNW visible
01 May 6.4 20:30:59 10° SW 20:34:36 18° W 20:38:14 10° NW visible
06 May 6.4 20:37:01 10° SW 20:40:11 16° W 20:43:23 10° NW visible
